Latest Weather Observations for Coolangatta

IDQ60901

Issued at 11:45 am EST Friday 19 September 2014 (issued every 10 minutes, with the page automatically refreshed every 10 minutes)

About weather observations | Map of Brisbane area stations | Latest observations for Brisbane area | Other Formats
Station Details ID: 040717 Name: COOLANGATTA Lat: -28.17 Lon: 153.51 Height: 4.0 m
Data from the previous 72 hours. | See also: Recent months at Coolangatta
Date/Time
EST
Tmp

°C
App
Tmp
°C
Dew
Point
°C
Rel
Hum
%
Delta-T

°C
Wind Press
QNH
hPa
Press
MSL
hPa
Rain
since
9 am
mm
Dir
 
Spd
km/h
Gust
km/h
Spd
kts
Gust
kts
19/11:30am 22.4 19.7 11.8 51 5.9 ENE 17 22 9 12 1020.0 1020.0 0.0
19/11:00am 22.1 18.6 8.6 42 7.1 ENE 17 20 9 11 1020.6 1020.6 0.0
19/10:30am 22.1 19.3 8.6 42 7.1 ENE 13 19 7 10 1021.0 1021.0 0.0
19/10:00am 22.4 20.5 8.9 42 7.2 NNE 9 15 5 8 1021.3 1021.3 0.0
19/09:30am 21.9 20.3 8.8 43 6.9 NNE 7 15 4 8 1021.6 1021.6 0.0
19/09:00am 21.1 19.4 9.7 48 6.1 SE 9 15 5 8 1021.9 1021.9 0.0
19/08:30am 19.9 17.8 9.8 52 5.4 SSE 11 15 6 8 1021.9 1021.9 0.0
19/08:00am 18.6 17.5 10.7 60 4.2 SSE 7 9 4 5 1021.6 1021.6 0.0
19/07:30am 16.8 16.0 11.1 69 3.1 SSE 6 7 3 4 1021.6 1021.6 0.0
19/07:00am 14.5 13.7 11.1 80 1.8 S 6 7 3 4 1021.3 1021.3 0.0
19/06:30am 12.1 11.3 11.0 93 0.6 SSW 6 7 3 4 1020.9 1020.9 0.0
19/06:00am 10.5 9.3 9.7 95 0.4 SW 6 7 3 4 1020.7 1020.7 0.0
19/05:30am 9.6 8.1 8.5 93 0.5 S 6 7 3 4 1020.6 1020.6 0.0
19/05:00am 10.2 8.8 9.4 95 0.4 SSW 7 7 4 4 1020.3 1020.3 0.0
19/04:30am 10.1 8.8 9.3 95 0.4 SW 6 7 3 4 1019.9 1019.9 0.0
19/04:00am 9.3 8.0 7.7 90 0.8 SSW 4 7 2 4 1019.5 1019.5 0.0
19/03:30am 9.8 8.3 8.6 92 0.6 SSW 6 7 3 4 1019.3 1019.3 0.0
19/03:00am 10.9 9.8 10.0 94 0.5 SSW 6 7 3 4 1019.2 1019.2 0.0
19/02:30am 10.4 9.1 9.3 93 0.5 SW 6 7 3 4 1019.4 1019.4 0.0
19/02:00am 10.2 8.8 8.8 91 0.7 SW 6 6 3 3 1019.7 1019.7 0.0
19/01:30am 10.7 9.4 9.1 90 0.8 SSW 6 7 3 4 1019.9 1019.9 0.0
19/01:00am 11.3 10.1 9.7 90 0.8 S 6 7 3 4 1020.1 1020.1 0.0
19/12:30am 11.3 10.1 9.6 89 0.9 SSW 6 7 3 4 1020.4 1020.4 0.0
19/12:00am 10.7 9.5 7.9 83 1.3 SW 4 7 2 4 1020.6 1020.6 0.0
 
Date/Time
EST
Tmp

°C
App
Tmp
°C
Dew
Point
°C
Rel
Hum
%
Delta-T

°C
Wind Press
QNH
hPa
Press
MSL
hPa
Rain
since
9 am
mm
Dir
 
Spd
km/h
Gust
km/h
Spd
kts
Gust
kts
18/11:30pm 11.9 11.4 9.5 85 1.2 SSW 2 7 1 4 1020.7 1020.7 0.0
18/11:00pm 11.3 9.7 8.7 84 1.3 SSW 7 7 4 4 1020.7 1020.7 0.0
18/10:30pm 12.2 10.9 9.2 82 1.5 SW 6 7 3 4 1020.6 1020.6 0.0
18/10:00pm 11.7 10.6 8.4 80 1.6 WSW 4 7 2 4 1020.4 1020.4 0.0
18/09:30pm 12.8 11.8 8.7 76 2.0 WSW 4 7 2 4 1020.3 1020.3 0.0
18/09:00pm 12.8 10.9 9.1 78 1.9 WSW 9 11 5 6 1020.0 1020.0 0.0
18/08:30pm 13.6 12.7 9.3 75 2.2 SSW 4 11 2 6 1019.8 1019.8 0.0
18/08:00pm 14.0 12.8 9.4 74 2.3 WSW 6 11 3 6 1019.4 1019.4 0.0
18/07:30pm 14.4 12.1 9.0 70 2.7 WSW 11 13 6 7 1019.0 1019.0 0.0
18/07:00pm 14.4 12.4 8.8 69 2.8 WSW 9 11 5 6 1018.5 1018.5 0.0
18/06:30pm 15.7 14.7 7.5 58 4.1 SE 2 6 1 3 1018.2 1018.2 0.0
18/06:00pm 17.5 15.5 7.0 50 5.2 E 7 9 4 5 1017.8 1017.8 0.0
18/05:30pm 19.2 15.7 5.6 41 6.7 ESE 13 19 7 10 1017.5 1017.5 0.0
18/05:00pm 20.1 16.6 5.4 38 7.2 ESE 13 20 7 11 1017.2 1017.2 0.0
18/04:30pm 20.7 16.1 5.5 37 7.5 E 19 28 10 15 1016.9 1016.9 0.0
18/04:00pm 21.2 16.5 5.9 37 7.6 ESE 20 26 11 14 1016.4 1016.4 0.0
18/03:30pm 21.6 16.7 6.7 38 7.6 E 22 28 12 15 1016.2 1016.2 0.0
18/03:00pm 21.8 15.4 5.3 34 8.2 ESE 28 33 15 18 1016.1 1016.1 0.0
18/02:30pm 22.3 17.2 6.1 35 8.2 ENE 22 28 12 15 1016.3 1016.3 0.0
18/02:12pm 23.5 17.6 7.6 36 8.3 E 28 32 15 17 1015.8 1015.8 0.0
18/02:00pm 25.2 21.8 -0.8 18 11.8 WSW 7 13 4 7 1015.8 1015.8 0.0
18/01:30pm 25.4 20.2 2.2 22 11.1 SSW 19 28 10 15 1016.0 1016.0 0.0
18/01:00pm 25.2 20.4 0.0 19 11.6 S 15 30 8 16 1016.4 1016.4 0.0
18/12:30pm 24.5 19.0 0.8 21 11.0 SSW 19 28 10 15 1016.7 1016.7 0.0
18/12:00pm 24.5 18.8 0.8 21 11.0 SSW 20 32 11 17 1017.2 1017.2 0.0
18/11:30am 24.4 20.3 2.5 24 10.5 SSW 13 22 7 12 1017.7 1017.7 0.0
18/11:00am 23.5 18.2 2.9 26 9.9 S 20 28 11 15 1018.2 1018.2 0.0
18/10:30am 22.8 17.4 1.2 24 10.0 S 19 30 10 16 1018.6 1018.6 0.0
18/10:00am 22.2 15.6 1.8 26 9.5 S 26 39 14 21 1018.9 1018.9 0.0
18/09:30am 22.1 15.9 2.2 27 9.3 S 24 37 13 20 1019.1 1019.1 0.0
18/09:00am 21.4 16.5 2.2 28 8.9 SW 17 30 9 16 1019.4 1019.4 0.0
18/08:30am 20.9 16.7 1.7 28 8.8 SSW 13 24 7 13 1019.5 1019.5 0.0
18/08:00am 20.2 17.2 3.9 34 7.8 S 9 13 5 7 1019.3 1019.3 0.0
18/07:30am 18.7 17.5 4.5 39 6.8 CALM 0 6 0 3 1019.3 1019.3 0.0
18/07:00am 16.3 15.5 6.4 52 4.8 CALM 0 0 0 0 1019.0 1019.0 0.0
18/06:30am 13.3 10.8 8.2 71 2.5 WSW 11 13 6 7 1018.5 1018.5 0.0
18/06:00am 10.2 8.5 5.8 74 2.0 WSW 4 11 2 6 1018.2 1018.2 0.0
18/05:30am 11.6 9.6 6.1 69 2.6 SSW 6 7 3 4 1017.7 1017.7 0.0
18/05:00am 12.3 9.9 4.5 59 3.5 S 6 7 3 4 1017.3 1017.3 0.0
18/04:30am 14.6 12.5 3.7 48 5.0 S 4 11 2 6 1016.7 1016.7 0.0
18/04:00am 17.1 14.2 2.7 38 6.5 SSW 7 13 4 7 1016.1 1016.1 0.0
18/03:30am 18.3 13.9 2.6 35 7.2 SSW 15 22 8 12 1015.7 1015.7 0.0
18/03:00am 18.5 14.0 2.4 34 7.4 SSW 15 24 8 13 1015.4 1015.4 0.0
18/02:30am 18.9 13.8 3.1 35 7.4 SW 19 26 10 14 1015.1 1015.1 0.0
18/02:00am 18.8 14.5 3.4 36 7.2 SW 15 22 8 12 1014.8 1014.8 0.0
18/01:30am 17.2 14.1 3.5 40 6.3 SSW 9 13 5 7 1015.2 1015.2 0.0
18/01:00am 18.7 14.7 2.9 35 7.3 S 13 19 7 10 1015.2 1015.2 0.0
18/12:30am 19.4 15.2 3.6 35 7.5 SSW 15 24 8 13 1015.2 1015.2 0.0
18/12:00am 19.2 15.1 4.6 38 7.0 SSW 15 20 8 11 1015.2 1015.2 0.0
 
Date/Time
EST
Tmp

°C
App
Tmp
°C
Dew
Point
°C
Rel
Hum
%
Delta-T

°C
Wind Press
QNH
hPa
Press
MSL
hPa
Rain
since
9 am
mm
Dir
 
Spd
km/h
Gust
km/h
Spd
kts
Gust
kts
17/11:30pm 15.9 13.4 9.6 66 3.3 S 13 22 7 12 1015.2 1015.2 0.0
17/11:00pm 13.2 12.7 11.9 92 0.7 SW 6 7 3 4 1015.2 1015.2 0.0
17/10:30pm 14.3 14.1 12.9 91 0.8 SW 6 7 3 4 1015.1 1015.1 0.0
17/10:00pm 14.5 14.3 13.0 91 0.8 WSW 6 7 3 4 1015.0 1015.0 0.0
17/09:30pm 15.5 15.6 14.4 93 0.6 WSW 7 11 4 6 1015.0 1015.0 0.0
17/09:00pm 14.7 15.2 12.7 88 1.1 SE 2 7 1 4 1014.6 1014.6 0.0
17/08:30pm 15.8 16.1 13.5 86 1.3 ESE 4 7 2 4 1014.3 1014.3 0.0
17/08:00pm 16.8 18.0 13.7 82 1.8 CALM 0 4 0 2 1014.0 1014.0 0.0
17/07:30pm 19.1 19.5 15.2 78 2.3 S 7 9 4 5 1013.6 1013.6 0.0
17/07:00pm 19.3 19.3 15.2 77 2.4 SW 9 15 5 8 1013.1 1013.1 0.0
17/06:30pm 19.3 19.4 15.4 78 2.3 S 9 13 5 7 1012.5 1012.5 0.0
17/06:00pm 19.4 19.0 14.2 72 3.0 S 9 13 5 7 1011.9 1011.9 0.0
17/05:30pm 20.9 20.0 12.6 59 4.7 SW 9 17 5 9 1011.4 1011.4 0.0
17/05:00pm 22.8 20.5 14.6 60 4.8 NE 20 26 11 14 1010.9 1010.9 0.0
17/04:30pm 26.7 22.4 3.2 22 11.6 WNW 15 22 8 12 1010.7 1010.7 0.0
17/04:00pm 27.4 22.6 2.5 20 12.2 NW 17 30 9 16 1010.4 1010.4 0.0
17/03:30pm 27.9 22.6 2.9 20 12.4 W 20 32 11 17 1010.3 1010.3 0.0
17/03:00pm 28.0 22.9 3.0 20 12.4 WNW 19 24 10 13 1010.5 1010.5 0.0
17/02:30pm 27.7 22.2 2.0 19 12.5 WNW 20 33 11 18 1010.6 1010.6 0.0
17/02:00pm 28.1 22.4 3.0 20 12.5 NW 22 35 12 19 1010.8 1010.8 0.0
17/01:30pm 27.5 22.6 3.9 22 11.9 NW 19 22 10 12 1011.3 1011.3 0.0
17/01:00pm 27.1 22.6 4.2 23 11.5 WNW 17 30 9 16 1011.8 1011.8 0.0
17/12:30pm 26.6 22.4 5.5 26 10.8 ENE 17 20 9 11 1012.1 1012.1 0.0
17/12:00pm 25.7 21.2 6.3 29 10.1 ENE 19 24 10 13 1012.7 1012.7 0.0
17/11:30am 25.9 23.0 4.9 26 10.6 ENE 9 13 5 7 1013.3 1013.3 0.0
17/11:00am 25.3 21.9 6.0 29 9.9 ENE 13 17 7 9 1013.8 1013.8 0.0
17/10:30am 25.6 23.1 6.7 30 9.9 NNW 9 17 5 9 1014.3 1014.3 0.0
17/10:00am 24.3 22.3 6.1 31 9.3 NW 6 13 3 7 1014.6 1014.6 0.0
17/09:30am 24.4 23.6 11.0 43 7.5 SE 6 13 3 7 1014.9 1014.9 0.0
17/09:00am 23.4 21.7 9.8 42 7.4 S 9 11 5 6 1015.0 1015.0 0.2
17/08:30am 21.8 20.9 12.6 56 5.2 NW 9 13 5 7 1015.0 1015.0 0.2
17/08:00am 19.7 19.6 13.4 67 3.6 SSW 6 11 3 6 1015.1 1015.1 0.2
17/07:30am 18.1 17.9 13.6 75 2.6 NNW 7 9 4 5 1014.9 1014.9 0.2
17/07:00am 16.0 17.1 13.5 85 1.4 CALM 0 6 0 3 1014.5 1014.5 0.2
17/06:30am 14.3 14.2 13.2 93 0.6 SW 6 7 3 4 1014.0 1014.0 0.2
17/06:00am 14.0 15.0 13.1 94 0.5 CALM 0 6 0 3 1013.8 1013.8 0.2
17/05:30am 14.3 14.0 13.2 93 0.6 W 7 11 4 6 1013.4 1013.4 0.2
17/05:00am 14.3 14.1 13.0 92 0.7 WSW 6 9 3 5 1013.0 1013.0 0.2
17/04:30am 14.5 14.8 12.2 86 1.2 W 2 7 1 4 1012.9 1012.9 0.2
17/04:00am 15.8 15.2 13.5 86 1.3 NW 9 13 5 7 1012.6 1012.6 0.2
17/03:30am 15.9 16.1 13.0 83 1.6 WNW 4 11 2 6 1012.4 1012.4 0.2
17/03:00am 16.3 16.2 13.2 82 1.7 NW 6 13 3 7 1012.2 1012.2 0.2
17/02:30am 17.0 15.7 13.7 81 1.9 NNW 13 19 7 10 1012.3 1012.3 0.2
17/02:00am 17.8 15.6 13.3 75 2.5 NW 17 22 9 12 1012.6 1012.6 0.2
17/01:30am 18.1 16.1 13.8 76 2.4 NW 17 24 9 13 1012.7 1012.7 0.2
17/01:00am 17.9 16.9 14.6 81 1.9 NW 13 17 7 9 1012.7 1012.7 0.2
17/12:30am 19.0 17.5 14.1 73 2.8 NNW 15 20 8 11 1012.9 1012.9 0.2
17/12:00am 19.6 18.2 15.5 77 2.4 NNW 17 28 9 15 1012.9 1012.9 0.2
 
Date/Time
EST
Tmp

°C
App
Tmp
°C
Dew
Point
°C
Rel
Hum
%
Delta-T

°C
Wind Press
QNH
hPa
Press
MSL
hPa
Rain
since
9 am
mm
Dir
 
Spd
km/h
Gust
km/h
Spd
kts
Gust
kts
16/11:30pm 19.4 18.0 15.5 78 2.3 NW 17 22 9 12 1013.1 1013.1 0.2
16/11:00pm 19.5 18.3 16.0 80 2.1 NW 17 30 9 16 1013.3 1013.3 0.2
16/10:30pm 19.4 18.4 15.7 79 2.2 NNW 15 22 8 12 1013.3 1013.3 0.2
16/10:00pm 19.4 18.4 15.5 78 2.3 NW 15 22 8 12 1013.1 1013.1 0.2
16/09:30pm 19.8 18.3 15.4 76 2.6 NNW 17 22 9 12 1013.2 1013.2 0.2
16/09:00pm 20.2 18.4 15.6 75 2.7 NNW 19 30 10 16 1013.1 1013.1 0.2
16/08:30pm 20.3 18.6 16.3 78 2.4 NNW 20 28 11 15 1013.0 1013.0 0.2
16/08:00pm 20.2 18.4 16.0 77 2.5 NNW 20 26 11 14 1012.9 1012.9 0.2
16/07:30pm 20.1 19.3 17.1 83 1.8 N 17 26 9 14 1012.7 1012.7 0.2
16/07:00pm 20.1 19.0 17.7 86 1.5 N 20 28 11 15 1012.2 1012.2 0.2
16/06:30pm 20.5 19.2 18.1 86 1.5 N 22 30 12 16 1012.3 1012.3 0.0
16/06:00pm 20.4 17.6 18.2 87 1.4 N 30 35 16 19 1011.7 1011.7 0.0
16/05:30pm 20.9 19.0 17.7 82 2.0 N 24 32 13 17 1011.8 1011.8 0.0
16/05:00pm 20.9 18.6 17.5 81 2.1 N 26 35 14 19 1011.2 1011.2 0.0
16/04:30pm 21.7 17.5 17.1 75 2.8 N 35 48 19 26 1011.0 1011.0 0.0
16/04:00pm 22.4 18.6 17.1 72 3.3 N 33 44 18 24 1011.0 1011.0 0.0
16/03:30pm 22.8 18.7 17.3 71 3.4 N 35 44 19 24 1010.9 1010.9 0.0
16/03:00pm 22.8 18.3 17.3 71 3.4 N 37 46 20 25 1010.9 1010.9 0.0
16/02:30pm 23.1 19.5 17.6 71 3.4 N 33 43 18 23 1011.2 1011.2 0.0
16/02:00pm 23.6 19.4 17.1 67 4.0 N 35 44 19 24 1011.4 1011.4 0.0
16/01:30pm 23.4 19.7 17.4 69 3.7 N 33 44 18 24 1012.0 1012.0 0.0
16/01:00pm 23.8 20.6 16.3 63 4.6 N 28 35 15 19 1012.6 1012.6 0.0
16/12:30pm 24.2 20.1 15.9 59 5.0 N 32 43 17 23 1013.1 1013.1 0.0
16/12:00pm 23.5 19.3 15.8 62 4.6 N 32 41 17 22 1013.7 1013.7 0.0

Latest Capital City Observations: Canberra | Sydney | Melbourne | Brisbane | Adelaide | Perth | Hobart | Darwin

Other Formats:

Comma delimited format used in spreadsheet applications
http://www.bom.gov.au/fwo/IDQ60901/IDQ60901.94592.axf

JavaScript Object Notation format (JSON) in row-major order
http://www.bom.gov.au/fwo/IDQ60901/IDQ60901.94592.json